QPF
0.00 0.00 0.00 0.00 0.00 0.00 0.00 0.00 0.00 0.00 0.00 0.00 0.00 0.00 0.00 0.00 0.00 0.00 0.00 0.00 0.00 0.00 0.00 0.00 0.00 0.00 0.00 0.00 0.00 0.00 0.00 0.00 0.00 0.00 0.00 0.00 0.00 0.00 0.00 0.00 0.00 0.00 0.00 0.00 0.00
0.00 0.00 0.00 0.00 0.00 0.00 0.00 0.00 0.00 0.00 0.00 0.00 0.00 0.00 0.00 0.00 0.00 0.00 0.00 0.00 0.00 0.00 0.00 0.00 0.00 0.00 0.00 0.00 0.00 0.00 0.00 0.00 0.00 0.00 0.00 0.00 0.00 0.00 0.00 0.00 0.00 0.00 0.00 0.00 0.00
0.00 0.00 0.00 0.00 0.00 0.00 0.00 0.00 0.00 0.00 0.00 0.00 0.00 0.00 0.00 0.00 0.00 0.00 0.00 0.00 0.00 0.00 0.00 0.00 0.00 0.00 0.00 0.00 0.00 0.00 0.00 0.00 0.00 0.00 0.00 0.00 0.00 0.00 0.00 0.00 0.00 0.00 0.00 0.00 0.00
0.00 0.00 0.00 0.00 0.00 0.00 0.00 0.00 0.00 0.00 0.00 0.00 0.00 0.00 0.00 0.00 0.00 0.00 0.00 0.00 0.00 0.00 0.00 0.00 0.00 0.00 0.00 0.00 0.00 0.00 0.00 0.00 0.00 0.00 0.00 0.00 0.00 0.00 0.00 0.00 0.00 0.00 0.00 0.00 0.00
0.00 0.00 0.00 0.00 0.00 0.00 0.00 0.00 0.00 0.00 0.00 0.00 0.00 0.00 0.00 0.00 0.00 0.00 0.00 0.00 0.00 0.00 0.00 0.00 0.00 0.00 0.00 0.00 0.00 0.00 0.00 0.00 0.00 0.00 0.00 0.00 0.00 0.00 0.00 0.00 0.00 0.00 0.00 0.00 0.00
0.00 0.00 0.00 0.00 0.00 0.00 0.00 0.00 0.00 0.00 0.00 0.00 0.00 0.00 0.00 0.00 0.00 0.00 0.00 0.00 0.00 0.00 0.00 0.00 0.00 0.00 0.00 0.00 0.00 0.00 0.00 0.00 0.00 0.00 0.00 0.00 0.00 0.00 0.00 0.00 0.00 0.00 0.00 0.00 0.00
0.00 0.00 0.00 0.00 0.00 0.00 0.00 0.00 0.00 0.00 0.00 0.00 0.00 0.00 0.00 0.00 0.00 0.00 0.00 0.00 0.00 0.00 0.00 0.00 0.00 0.00 0.00 0.00 0.00 0.00 0.00 0.00 0.00 0.00 0.00 0.00 0.00 0.00 0.00 0.00 0.00 0.00 0.00 0.00 0.00
0.00 0.00 0.00 0.00 0.00 0.00 0.00 0.00 0.00 0.00 0.00 0.00 0.00 0.00 0.00 0.00 0.00 0.00 0.00 0.00 0.00 0.00 0.00 0.00 0.00 0.00 0.00 0.00 0.00 0.00 0.00 0.00 0.00 0.00 0.00 0.00 0.00 0.00 0.00 0.00 0.00 0.00 0.00 0.00 0.00
0.00 0.00 0.00 0.00 0.00 0.00 0.00 0.00 0.00 0.00 0.00 0.00 0.00 0.00 0.00 0.00 0.00 0.00 0.00 0.00 0.00 0.00 0.00 0.00 0.00 0.00 0.00 0.00 0.00 0.00 0.00 0.00 0.00 0.00 0.00 0.00 0.00 0.00 0.00 0.00 0.00 0.00 0.00 0.00 0.00
0.00 0.00 0.00 0.00 0.00 0.00 0.00 0.00 0.00 0.00 0.00 0.00 0.00 0.00 0.00 0.00 0.00 0.00 0.00 0.00 0.00 0.00 0.00 0.00 0.00 0.00 0.00 0.00 0.00 0.00 0.00 0.00 0.00 0.00 0.00 0.00 0.00 0.00 0.00 0.00 0.00 0.00 0.00 0.00 0.00
0.00 0.00 0.00 0.00 0.00 0.00 0.00 0.00 0.00 0.00 0.00 0.00 0.00 0.00 0.00 0.00 0.00 0.00 0.00 0.00 0.00 0.00 0.00 0.00 0.00 0.00 0.00 0.00 0.00 0.00 0.00 0.00 0.00 0.00 0.00 0.00 0.00 0.00 0.00 0.00 0.00 0.00 0.00 0.00 0.00
0.00 0.00 0.00 0.00 0.00 0.00 0.00 0.00 0.00 0.00 0.00 0.00 0.00 0.00 0.00 0.00 0.00 0.00 0.00 0.00 0.00 0.00 0.00 0.00 0.00 0.00 0.00 0.00 0.00 0.00 0.00 0.00 0.00 0.00 0.00 0.00 0.00 0.00 0.00 0.00 0.00 0.00 0.00 0.00 0.00
0.00 0.00 0.00 0.00 0.00 0.00 0.00 0.00 0.00 0.00 0.00 0.00 0.00 0.00 0.00 0.00 0.00 0.00 0.00 0.00 0.00 0.00 0.00 0.00 0.00 0.00 0.00 0.00 0.00 0.00 0.00 0.00 0.00 0.00 0.00 0.00 0.00 0.00 0.00 0.00 0.00 0.00 0.00 0.00 0.00
0.00 0.00 0.00 0.00 0.00 0.00 0.00 0.00 0.00 0.00 0.00 0.00 0.00 0.00 0.00 0.00 0.00 0.00 0.00 0.00 0.00 0.00 0.00 0.00 0.00 0.00 0.00 0.00 0.00 0.00 0.00 0.00 0.00 0.00 0.00 0.00 0.00 0.00 0.00 0.00 0.00 0.00 0.00 0.00 0.00
0.00 0.00 0.00 0.00 0.00 0.00 0.00 0.00 0.00 0.00 0.00 0.00 0.00 0.00 0.00 0.00 0.00 0.00 0.00 0.00 0.00 0.00 0.00 0.00 0.00 0.00 0.00 0.00 0.00 0.00 0.00 0.00 0.00 0.00 0.00 0.00 0.00 0.00 0.00 0.00 0.00 0.00 0.00 0.00 0.00
0.00 0.00 0.00 0.00 0.00 0.00 0.00 0.00 0.00 0.00 0.00 0.00 0.00 0.00 0.00 0.00 0.00 0.00 0.00 0.00 0.00 0.00 0.00 0.00 0.00 0.00 0.00 0.00 0.00 0.00 0.00 0.00 0.00 0.00 0.00 0.00 0.00 0.00 0.00 0.00 0.00 0.00 0.00 0.00 0.00
0.00 0.00 0.00 0.00 0.00 0.00 0.00 0.00 0.00 0.00 0.00 0.00 0.00 0.00 0.00 0.00 0.00 0.00 0.00 0.00 0.00 0.00 0.00 0.00 0.00 0.00 0.00 0.00 0.00 0.00 0.00 0.00 0.00 0.00 0.00 0.00 0.00 0.00 0.00 0.00 0.00 0.00 0.00 0.00 0.00
0.00 0.00 0.00 0.00 0.00 0.00 0.00 0.00 0.00 0.00 0.00 0.00 0.00 0.00 0.00 0.00 0.00 0.00 0.00 0.00 0.00 0.00 0.00 0.00 0.00 0.00 0.00 0.00 0.00 0.00 0.00 0.00 0.00 0.00 0.00 0.00 0.00 0.00 0.00 0.00 0.00 0.00 0.00 0.00 0.00
0.00 0.00 0.00 0.00 0.00 0.00 0.00 0.00 0.00 0.00 0.00 0.00 0.00 0.00 0.00 0.00 0.00 0.00 0.00 0.00 0.00 0.00 0.00 0.00 0.00 0.00 0.00 0.00 0.00 0.00 0.00 0.00 0.00 0.00 0.00 0.00 0.00 0.00 0.00 0.00 0.00 0.00 0.00 0.00 0.00
0.00 0.00 0.00 0.00 0.00 0.00 0.00 0.00 0.00 0.00 0.00 0.00 0.00 0.00 0.00 0.00 0.00 0.00 0.00 0.00 0.00 0.00 0.00 0.00 0.00 0.00 0.00 0.00 0.00 0.00 0.00 0.00 0.00 0.00 0.00 0.00 0.00 0.00 0.00 0.00 0.00 0.00 0.00 0.00 0.00
0.00 0.00 0.00 0.00 0.00 0.00 0.00 0.00 0.00 0.00 0.00 0.00 0.00 0.00 0.00 0.00 0.00 0.00 0.00 0.00 0.00 0.00 0.00 0.00 0.00 0.00 0.00 0.00 0.00 0.00 0.00 0.00 0.00 0.00 0.00 0.00 0.00 0.00 0.00 0.00 0.00 0.00 0.00 0.00 0.00
0.00 0.00 0.00 0.00 0.00 0.00 0.00 0.00 0.00 0.00 0.00 0.00 0.00 0.00 0.00 0.00 0.00 0.00 0.00 0.00 0.00 0.00 0.00 0.00 0.00 0.00 0.00 0.00 0.00 0.00 0.00 0.00 0.00 0.00 0.00 0.00 0.00 0.00 0.00 0.00 0.00 0.00 0.00 0.00 0.00
0.00 0.00 0.00 0.00 0.00 0.00 0.00 0.00 0.00 0.00 0.00 0.02 0.02 0.00 0.00 0.00 0.00 0.00 0.00 0.00 0.00 0.00 0.00 0.00 0.00 0.00 0.00 0.00 0.00 0.00 0.00 0.00 0.00 0.00 0.00 0.00 0.00 0.00 0.00 0.00 0.00 0.00 0.00 0.00 0.00
0.00 0.00 0.00 0.00 0.00 0.00 0.00 0.00 0.00 0.00 0.01 0.01 0.01 0.00 0.00 0.00 0.00 0.00 0.00 0.00 0.00 0.00 0.00 0.00 0.00 0.00 0.00 0.00 0.00 0.00 0.00 0.00 0.00 0.00 0.00 0.00 0.00 0.00 0.00 0.00 0.00 0.00 0.00 0.00 0.00
0.00 0.00 0.00 0.00 0.00 0.00 0.01 0.00 0.01 0.01 0.00 0.00 0.01 0.00 0.01 0.00 0.00 0.00 0.00 0.00 0.00 0.00 0.00 0.00 0.00 0.00 0.00 0.00 0.00 0.00 0.00 0.00 0.00 0.00 0.00 0.00 0.00 0.00 0.00 0.00 0.00 0.00 0.00 0.00 0.00
0.00 0.01 0.01 0.00 0.00 0.00 0.00 0.01 0.02 0.01 0.00 0.01 0.02 0.00 0.01 0.01 0.00 0.00 0.00 0.00 0.00 0.00 0.00 0.00 0.00 0.00 0.00 0.00 0.00 0.00 0.00 0.00 0.00 0.00 0.00 0.00 0.00 0.00 0.00 0.00 0.00 0.00 0.00 0.00 0.00
0.01 0.01 0.03 0.01 0.01 0.01 0.01 0.01 0.01 0.01 0.00 0.00 0.00 0.00 0.00 0.00 0.00 0.00 0.00 0.00 0.00 0.00 0.00 0.00 0.00 0.00 0.00 0.00 0.00 0.00 0.00 0.00 0.00 0.00 0.00 0.00 0.00 0.00 0.00 0.00 0.00 0.00 0.00 0.00 0.00
MSLP
1019.11 1018.65 1018.23 1017.80 1017.32 1016.87 1016.35 1015.81 1015.31 1014.93 1014.55 1014.31 1013.93 1013.56 1013.34 1012.93 1012.14 1011.53 1009.00 1006.92 1007.26 1007.89 1008.08 1007.74 1007.71 1007.71 1007.78 1007.08 1006.97 1006.75 1004.32 1001.68 1001.75 1001.61 1002.22 1003.41 1003.82 1004.82 1005.52 1006.39 1007.23 1007.89 1008.21 1009.77 1011.39
1019.21 1018.70 1018.16 1017.64 1017.10 1016.59 1016.13 1015.69 1015.14 1014.65 1014.28 1013.99 1013.76 1013.36 1012.98 1012.68 1011.03 1008.36 1006.10 1006.28 1006.92 1007.34 1007.06 1006.69 1006.55 1006.89 1006.69 1006.13 1006.21 1005.59 1003.35 1001.81 1002.15 1002.09 1001.86 1002.96 1003.57 1004.63 1005.26 1006.24 1006.99 1007.86 1008.61 1010.32 1011.26
1019.32 1018.73 1018.13 1017.52 1016.92 1016.35 1015.82 1015.31 1014.88 1014.40 1013.98 1013.65 1013.48 1013.22 1012.80 1012.25 1009.43 1004.70 1004.84 1005.51 1006.54 1006.63 1006.03 1006.19 1006.02 1006.19 1005.42 1005.13 1005.04 1004.32 1003.28 1002.36 1002.16 1002.35 1002.16 1002.45 1003.25 1004.28 1004.72 1005.53 1006.26 1007.34 1008.72 1010.13 1011.04
1019.39 1018.81 1018.19 1017.49 1016.76 1016.09 1015.48 1014.88 1014.31 1013.89 1013.56 1013.30 1013.12 1012.92 1012.57 1011.32 1006.94 1004.20 1004.78 1005.20 1006.08 1005.89 1005.52 1005.64 1005.42 1005.32 1004.56 1004.12 1003.98 1003.82 1003.21 1002.69 1002.01 1002.12 1002.15 1002.14 1002.69 1003.67 1004.46 1004.64 1005.70 1007.26 1008.65 1009.65 1010.44
1019.51 1018.89 1018.17 1017.41 1016.58 1015.78 1015.02 1014.29 1013.63 1013.05 1012.82 1012.72 1012.68 1012.68 1012.05 1009.46 1005.56 1004.31 1005.26 1005.61 1005.83 1005.28 1004.77 1004.79 1004.69 1004.32 1003.60 1003.25 1003.43 1003.44 1002.63 1002.62 1002.21 1002.15 1001.97 1002.17 1002.47 1003.02 1003.93 1004.93 1005.63 1007.13 1008.54 1009.44 1010.22
1019.45 1018.80 1018.09 1017.23 1016.32 1015.36 1014.56 1013.80 1012.94 1012.10 1011.77 1011.81 1012.07 1012.35 1010.77 1007.31 1003.97 1004.20 1004.73 1005.11 1004.94 1004.60 1004.32 1004.26 1004.00 1003.99 1003.35 1002.95 1002.93 1002.31 1002.57 1002.18 1001.91 1001.60 1001.64 1001.85 1002.06 1002.86 1003.39 1004.71 1005.70 1006.96 1008.06 1008.91 1009.69
1019.34 1018.60 1017.84 1016.93 1015.88 1014.94 1014.00 1013.17 1012.19 1011.18 1010.67 1010.67 1011.33 1011.35 1009.31 1005.04 1004.16 1004.15 1004.43 1004.11 1004.24 1003.99 1003.60 1003.73 1003.77 1003.79 1003.20 1002.89 1002.99 1002.46 1002.39 1001.87 1001.41 1001.21 1001.14 1001.61 1001.58 1002.18 1002.78 1004.56 1005.38 1006.54 1007.58 1008.41 1009.08
1019.21 1018.35 1017.46 1016.53 1015.43 1014.31 1013.41 1012.48 1011.44 1010.49 1009.91 1010.25 1010.92 1010.53 1006.63 1003.94 1004.24 1004.20 1003.97 1003.89 1003.96 1003.91 1003.56 1003.82 1004.25 1003.62 1003.25 1002.64 1002.47 1002.03 1001.67 1000.59 1000.04 1000.34 1000.68 1001.27 999.82 1001.34 1002.65 1003.77 1004.55 1005.69 1006.86 1007.76 1008.48
1019.18 1018.36 1017.30 1016.30 1015.19 1013.93 1012.92 1011.99 1011.20 1010.51 1010.25 1010.40 1010.28 1008.95 1004.74 1004.52 1003.87 1003.50 1003.44 1003.24 1003.58 1003.95 1004.10 1004.11 1004.24 1003.78 1003.35 1002.89 1001.64 1000.86 999.75 999.50 999.17 999.90 999.87 1000.60 999.78 1000.00 1001.93 1002.75 1003.67 1004.91 1005.89 1006.95 1008.01
1019.10 1018.24 1017.23 1016.18 1015.03 1013.75 1012.57 1011.61 1011.12 1010.68 1010.30 1009.74 1009.15 1008.41 1004.26 1002.27 1002.11 1002.54 1003.02 1002.88 1003.34 1003.75 1004.40 1004.26 1004.29 1003.33 1002.49 1001.79 999.79 999.49 999.58 998.58 998.68 999.14 999.70 999.81 999.62 999.95 1000.85 1001.94 1002.70 1004.08 1005.20 1006.13 1006.93
1019.06 1018.00 1017.10 1016.07 1015.01 1013.78 1012.21 1010.08 1010.57 1009.58 1008.49 1006.48 1004.99 1003.72 1002.70 1002.02 1002.32 1002.08 1002.49 1002.65 1002.92 1003.31 1002.45 1003.13 1002.68 1000.78 1000.63 1000.94 1000.58 999.59 999.18 998.84 998.72 998.81 999.26 999.08 999.13 999.33 999.96 1001.09 1001.77 1002.97 1004.36 1005.03 1005.76
1019.12 1018.02 1016.95 1016.00 1015.01 1013.84 1011.93 1011.14 1013.12 1013.58 1009.17 1005.70 1004.32 1003.51 1002.54 1002.72 1001.31 1001.48 1001.88 1001.30 1001.47 1001.12 1001.42 1002.00 1000.17 1000.57 1000.91 1000.76 1000.58 999.99 999.49 998.78 998.56 998.82 999.37 998.77 998.59 998.80 998.95 999.89 1000.74 1001.59 1002.95 1003.86 1004.92
1019.05 1017.98 1016.89 1015.71 1014.62 1013.59 1012.84 1013.34 1013.61 1013.06 1009.80 1003.44 1002.34 1001.48 1001.47 1001.99 1000.53 1000.06 1000.62 1000.02 999.93 999.96 999.70 999.08 999.08 1000.19 1000.30 1000.33 1000.36 1000.05 999.40 999.04 998.73 998.71 999.04 998.75 998.19 998.17 998.51 999.15 999.77 1000.37 1001.56 1002.85 1003.68
1018.92 1017.98 1017.13 1015.80 1014.41 1013.89 1012.92 1013.25 1013.39 1013.00 1008.88 1001.81 1000.93 999.97 1000.12 1000.12 999.70 999.00 999.78 999.35 999.28 998.82 999.14 998.89 998.74 999.09 999.36 999.42 999.99 999.18 999.69 999.62 999.24 999.30 998.01 998.19 996.89 996.57 997.05 997.73 998.80 999.47 1000.17 1001.19 1002.21
1018.65 1017.90 1017.08 1016.59 1015.23 1013.88 1014.05 1013.48 1013.31 1012.54 1006.27 999.98 999.75 999.72 999.26 998.54 996.78 997.99 998.87 998.90 997.72 997.69 998.25 997.35 997.77 998.08 998.27 998.56 999.34 998.89 999.20 999.58 999.61 999.09 998.70 997.50 997.10 995.77 995.79 996.51 997.23 998.14 998.86 999.92 1000.79
1018.40 1017.74 1017.06 1015.41 1014.38 1013.86 1013.68 1013.22 1012.62 1009.88 1002.91 999.41 999.41 999.12 998.96 998.53 997.39 997.37 998.07 998.55 998.27 997.59 997.33 997.08 997.35 997.42 997.28 998.39 998.82 999.37 999.41 999.54 999.66 999.02 997.23 996.72 996.28 994.66 994.64 995.55 996.10 996.83 997.66 998.75 999.67
1018.06 1017.28 1016.69 1015.69 1014.32 1013.89 1013.24 1011.99 1010.00 1005.71 1001.42 1000.93 1000.12 999.53 998.36 997.52 997.49 997.27 997.19 997.11 996.14 996.21 995.58 996.66 996.16 996.86 997.10 997.51 998.15 998.75 998.61 998.03 997.80 996.76 995.02 995.93 995.28 994.07 994.01 994.35 995.05 995.40 996.27 997.43 998.56
1017.82 1016.84 1015.88 1015.22 1014.52 1013.78 1012.60 1010.62 1007.93 1004.66 1004.24 1003.64 1002.62 1000.99 999.20 997.65 997.27 996.75 996.61 996.15 996.17 995.22 994.39 995.05 994.93 995.06 995.27 995.81 996.25 997.14 996.93 995.26 994.62 994.13 994.65 995.00 993.01 992.68 993.89 994.42 994.42 994.92 994.81 996.24 997.51
1017.49 1015.37 1014.54 1014.42 1014.22 1013.62 1011.71 1009.24 1007.18 1007.43 1007.59 1005.98 1003.39 1000.96 998.99 998.99 998.27 997.21 996.20 995.64 995.41 994.72 993.89 993.40 993.02 993.63 994.45 995.27 995.44 995.86 995.43 995.12 994.08 994.23 993.69 992.50 992.87 993.21 993.17 993.19 993.73 994.02 994.23 994.60 996.03
1017.15 1015.31 1014.31 1014.11 1013.76 1012.88 1010.83 1009.54 1009.12 1009.55 1009.10 1007.62 1005.26 1003.44 1001.29 1000.19 999.26 997.60 996.36 997.16 995.29 995.37 995.26 993.67 992.94 992.97 994.21 995.02 994.60 994.09 995.40 995.11 994.29 993.60 992.89 992.00 991.71 991.41 991.63 992.40 992.63 992.88 993.09 993.71 994.70
1016.66 1014.67 1014.46 1014.08 1013.15 1011.52 1010.70 1010.91 1011.05 1010.87 1010.22 1009.03 1006.89 1005.55 1003.86 1002.42 1000.76 998.86 998.11 999.13 998.07 996.62 997.12 995.73 993.63 992.52 993.32 992.58 992.43 993.56 993.49 993.98 993.89 993.25 991.97 991.44 990.44 990.40 991.01 991.48 991.87 991.99 992.50 992.97 993.74
1016.72 1014.52 1014.85 1014.15 1012.32 1012.40 1012.11 1012.62 1012.41 1011.13 1010.84 1009.93 1008.74 1007.56 1005.88 1004.12 1002.33 1000.68 1000.13 1000.42 1000.76 999.31 997.91 996.77 994.89 992.68 991.91 992.51 992.73 992.72 992.87 993.13 992.57 992.74 992.74 991.66 990.30 990.75 990.90 990.99 991.50 991.66 992.06 992.53 993.18
1017.02 1015.89 1015.25 1014.38 1013.27 1013.32 1013.25 1012.86 1012.47 1012.01 1012.23 1011.76 1010.53 1009.09 1007.96 1005.97 1004.17 1002.77 1002.24 1002.70 1001.87 1000.35 999.32 998.16 995.75 993.62 992.69 992.77 992.70 991.78 992.26 992.48 992.87 992.24 991.65 991.66 990.97 991.49 991.72 991.69 991.72 991.78 991.97 992.51 993.07
1017.74 1015.76 1014.72 1014.98 1015.10 1014.83 1014.31 1013.42 1012.86 1012.71 1012.73 1012.47 1013.02 1011.27 1009.54 1007.13 1005.53 1004.34 1003.39 1003.21 1002.87 1002.04 1001.53 1000.08 996.60 994.09 991.95 992.06 992.24 992.25 991.73 992.24 992.10 991.54 991.04 991.00 991.13 991.41 991.58 991.70 992.18 992.53 992.87 993.17 993.66
1018.27 1017.07 1017.43 1015.92 1015.74 1015.84 1015.57 1014.26 1013.44 1013.47 1013.43 1012.73 1013.17 1013.34 1012.30 1009.52 1006.78 1005.67 1004.93 1004.10 1003.23 1002.88 1001.47 1000.10 997.48 996.88 994.96 995.14 994.26 992.35 991.96 991.85 991.27 991.54 990.96 990.95 991.10 991.52 991.68 992.02 992.39 992.80 992.98 993.35 993.74
1018.59 1018.34 1018.03 1017.47 1016.91 1016.42 1015.18 1014.61 1013.86 1013.96 1013.73 1012.86 1013.32 1013.26 1012.60 1011.71 1010.61 1008.40 1007.09 1005.44 1003.92 1003.47 1002.40 1001.34 999.18 998.57 996.91 996.29 995.71 994.56 993.61 992.74 991.97 991.65 991.75 991.60 991.19 991.72 992.28 992.66 992.64 992.88 993.20 993.11 993.23
1019.14 1019.06 1019.06 1017.77 1016.83 1016.34 1015.02 1014.97 1014.41 1014.17 1013.45 1013.22 1012.71 1012.18 1011.44 1011.64 1011.36 1009.77 1008.27 1007.07 1006.00 1005.15 1003.75 1002.71 1000.65 999.67 997.34 996.57 996.09 994.64 993.63 993.51 993.23 992.89 992.76 991.89 992.66 993.05 992.90 993.31 993.31 993.12 992.97 992.78 992.89
Thickness
5721 5724 5726 5728 5731 5734 5737 5741 5744 5746 5749 5751 5754 5756 5758 5761 5769 5776 5789 5812 5810 5810 5810 5812 5810 5809 5810 5806 5809 5806 5798 5811 5811 5813 5812 5821 5811 5819 5822 5805 5804 5805 5803 5798 5791
5717 5720 5724 5727 5731 5734 5737 5740 5743 5746 5748 5751 5753 5756 5759 5762 5775 5790 5819 5818 5814 5811 5810 5806 5802 5805 5801 5807 5805 5798 5802 5814 5825 5826 5824 5822 5818 5811 5806 5799 5797 5797 5804 5795 5791
5712 5716 5720 5724 5729 5733 5737 5740 5743 5745 5748 5750 5751 5754 5757 5762 5780 5812 5825 5821 5815 5814 5818 5813 5812 5804 5800 5812 5808 5808 5796 5822 5826 5830 5834 5826 5820 5819 5807 5793 5802 5794 5793 5790 5787
5707 5711 5715 5720 5726 5731 5736 5740 5744 5746 5748 5751 5751 5752 5755 5766 5779 5822 5821 5820 5814 5818 5817 5809 5807 5796 5798 5799 5816 5798 5815 5820 5829 5833 5830 5825 5831 5814 5811 5812 5818 5807 5799 5794 5787
5701 5705 5710 5716 5722 5728 5734 5740 5744 5749 5751 5752 5751 5750 5758 5769 5793 5820 5813 5811 5811 5816 5811 5806 5800 5801 5797 5810 5812 5802 5816 5822 5830 5831 5833 5835 5823 5820 5814 5819 5822 5810 5798 5791 5788
5697 5701 5706 5713 5719 5727 5733 5738 5744 5752 5755 5754 5752 5749 5761 5765 5821 5818 5814 5809 5810 5811 5809 5810 5806 5810 5804 5807 5805 5820 5816 5822 5830 5832 5834 5824 5825 5824 5823 5823 5813 5804 5796 5793 5790
5691 5696 5702 5709 5717 5725 5732 5738 5745 5753 5758 5758 5753 5753 5761 5788 5814 5814 5813 5812 5813 5811 5805 5813 5814 5804 5810 5799 5813 5816 5800 5817 5824 5831 5828 5833 5817 5813 5833 5820 5810 5802 5797 5795 5794
5685 5690 5697 5705 5713 5722 5730 5738 5746 5752 5757 5756 5750 5753 5772 5808 5809 5807 5811 5807 5812 5812 5811 5813 5810 5806 5802 5814 5808 5800 5806 5799 5830 5834 5835 5828 5818 5829 5833 5821 5812 5808 5801 5797 5796
5677 5681 5689 5698 5706 5716 5725 5733 5739 5745 5747 5747 5749 5756 5780 5798 5797 5808 5810 5800 5804 5804 5804 5806 5800 5793 5797 5783 5789 5801 5795 5806 5819 5836 5835 5823 5817 5842 5837 5827 5817 5811 5806 5800 5796
5668 5673 5678 5687 5697 5708 5718 5726 5730 5735 5739 5744 5749 5746 5783 5795 5806 5806 5807 5806 5793 5790 5781 5782 5778 5777 5786 5783 5775 5792 5792 5816 5813 5828 5830 5821 5821 5836 5840 5830 5823 5815 5809 5804 5801
5657 5664 5669 5675 5684 5696 5710 5728 5733 5737 5742 5760 5775 5779 5786 5800 5802 5798 5801 5794 5792 5782 5775 5779 5769 5777 5792 5795 5801 5809 5806 5805 5820 5834 5823 5823 5823 5832 5840 5833 5827 5821 5812 5810 5808
5645 5652 5657 5663 5670 5680 5698 5700 5684 5682 5717 5752 5761 5769 5782 5783 5784 5789 5798 5786 5783 5776 5785 5773 5777 5791 5793 5793 5791 5797 5794 5804 5821 5827 5819 5823 5821 5834 5842 5837 5834 5830 5821 5817 5814
5632 5638 5644 5651 5659 5667 5671 5668 5667 5673 5696 5758 5765 5772 5772 5774 5778 5787 5792 5795 5785 5779 5786 5784 5793 5793 5787 5782 5775 5782 5789 5797 5803 5819 5822 5818 5812 5823 5838 5841 5841 5842 5837 5829 5822
5616 5621 5625 5635 5647 5646 5652 5652 5653 5658 5687 5754 5755 5766 5773 5776 5768 5798 5795 5791 5783 5779 5784 5783 5800 5790 5786 5781 5782 5777 5798 5796 5795 5787 5788 5821 5793 5828 5840 5837 5835 5839 5841 5839 5835
5595 5600 5603 5606 5617 5627 5625 5630 5635 5643 5686 5746 5747 5768 5769 5769 5795 5782 5796 5782 5780 5784 5783 5786 5789 5788 5783 5788 5791 5786 5801 5790 5790 5785 5788 5800 5789 5821 5844 5829 5837 5843 5847 5847 5847
5565 5570 5573 5586 5596 5602 5606 5613 5618 5639 5674 5723 5731 5734 5740 5751 5767 5775 5774 5781 5784 5778 5784 5788 5803 5795 5798 5793 5793 5793 5783 5782 5781 5782 5762 5796 5799 5816 5829 5835 5845 5852 5853 5852 5853
5539 5542 5543 5545 5559 5566 5579 5595 5614 5641 5696 5684 5694 5712 5729 5739 5744 5752 5754 5755 5762 5752 5763 5774 5785 5794 5798 5780 5789 5780 5770 5752 5748 5757 5767 5809 5797 5820 5842 5856 5856 5858 5860 5859 5858
5526 5525 5521 5518 5521 5530 5546 5571 5586 5634 5627 5645 5658 5680 5696 5725 5730 5741 5742 5745 5762 5773 5773 5757 5755 5789 5805 5794 5784 5777 5782 5775 5749 5770 5780 5805 5794 5824 5852 5858 5864 5865 5873 5866 5860
5520 5523 5517 5507 5504 5508 5524 5543 5572 5559 5574 5601 5636 5659 5687 5692 5704 5721 5734 5744 5757 5774 5763 5765 5774 5804 5802 5802 5800 5781 5776 5813 5799 5799 5786 5816 5819 5836 5851 5855 5858 5862 5868 5870 5868
5515 5514 5508 5499 5496 5501 5514 5513 5520 5526 5541 5566 5590 5617 5635 5656 5674 5701 5722 5716 5746 5760 5763 5773 5763 5791 5790 5793 5800 5799 5802 5770 5787 5754 5758 5800 5808 5815 5838 5841 5856 5861 5869 5874 5877
5510 5509 5498 5489 5493 5503 5500 5495 5493 5499 5512 5527 5554 5574 5599 5619 5645 5675 5687 5685 5707 5728 5730 5750 5767 5775 5781 5782 5788 5784 5782 5787 5796 5794 5782 5784 5814 5856 5848 5853 5856 5867 5874 5878 5880
5501 5503 5488 5481 5489 5484 5481 5471 5470 5486 5493 5509 5527 5545 5567 5594 5616 5642 5652 5660 5671 5696 5709 5736 5750 5754 5772 5793 5802 5799 5791 5794 5778 5774 5791 5801 5819 5857 5859 5863 5862 5868 5876 5883 5886
5491 5485 5480 5476 5472 5468 5466 5466 5468 5471 5467 5475 5492 5514 5537 5564 5586 5610 5622 5634 5654 5675 5687 5711 5730 5732 5745 5767 5779 5784 5793 5797 5796 5807 5786 5780 5802 5846 5848 5850 5858 5861 5869 5875 5880
5479 5480 5477 5467 5458 5451 5451 5456 5458 5462 5459 5465 5447 5484 5508 5546 5569 5580 5600 5617 5632 5646 5657 5679 5719 5737 5751 5762 5774 5764 5784 5788 5793 5786 5796 5799 5809 5828 5838 5842 5848 5853 5858 5862 5865
5469 5467 5449 5456 5448 5439 5434 5448 5451 5444 5450 5459 5448 5441 5458 5512 5547 5560 5573 5594 5616 5627 5651 5669 5692 5701 5730 5719 5733 5764 5774 5782 5785 5794 5788 5809 5808 5823 5837 5841 5844 5849 5854 5854 5856
5462 5449 5445 5441 5436 5429 5441 5439 5446 5440 5442 5452 5438 5440 5452 5460 5482 5510 5535 5565 5586 5607 5623 5645 5662 5674 5690 5709 5715 5721 5743 5761 5780 5793 5794 5805 5807 5833 5836 5839 5841 5844 5845 5848 5854
5454 5445 5431 5437 5439 5431 5443 5434 5437 5438 5445 5445 5449 5456 5465 5459 5463 5495 5520 5540 5559 5572 5595 5613 5641 5654 5678 5702 5702 5701 5734 5746 5757 5773 5778 5782 5797 5815 5817 5822 5829 5837 5844 5849 5854